Regional Weather Roundup
Issued by NWS

Home | Current Version | Previous Version | Text Only | Print | Product List | Glossary On
Versions: 1 2 3 4 5 6 7 8 9 10 11 12 13 14 15 16 17 18 19 20 21 22 23 24 25 26 27
000
ASUS45 KBOU 060107
RWRCO

WEATHER ROUNDUP FOR COLORADO
NATIONAL WEATHER SERVICE DENVER/BOULDER CO
700 PM MDT THU MAY 05 2016

NOTE: "FAIR" INDICATES FEW OR NO CLOUDS BELOW 12000 FEET WITH NO
SIGNIFICANT WEATHER AND/OR OBSTRUCTIONS TO VISIBILITY.

COZ001>005-013-030-031-060200-
...NORTHWEST COLORADO...

CITY           SKY/WX    TMP DP  RH WIND       PRES   REMARKS
CRAIG          FAIR      73  32  22 E5        29.99F
HAYDEN         FAIR      72  28  20 E6        30.02F
MEEKER         FAIR      69  40  34 NE3       29.99F
MOUNT WERNER   NOT AVBL
STEAMBOAT SPGS FAIR      71  24  17 N9        30.04F
WALDEN         FAIR      63  19  19 E6        30.16F
$$

COZ006>008-011-060200-
...WEST CENTRAL VALLEYS...

CITY           SKY/WX    TMP DP  RH WIND       PRES   REMARKS
GRAND JUNCTION FAIR      80  28  15 SE8       29.85F
MONTROSE       FAIR      78  25  14 CALM      29.94F
EAGLE          FAIR      75  23  14 E6        30.01F
RIFLE          FAIR      76  31  19 W3        29.92F
DELTA          NOT AVBL
NUCLA          NOT AVBL
$$

COZ017>023-064>068-060200-
...SOUTHWEST COLORADO...

CITY           SKY/WX    TMP DP  RH WIND       PRES   REMARKS
DURANGO        FAIR      71  24  17 SE8       30.03F
CORTEZ         FAIR      75  25  15 SE10G25   29.94F
PAGOSA SPRINGS FAIR      69  19  15 S5        30.13F
TELLURIDE      NOT AVBL
WOLF CREEK PAS PTSUNNY   43  21  42 SW6       30.43F
$$

COZ009-010-012-014-032>034-037-058>063-060200-
...CENTRAL COLORADO...

CITY           SKY/WX    TMP DP  RH WIND       PRES   REMARKS
ASPEN          FAIR      70  19  14 S6        30.07F
BUENA VISTA    FAIR      65  13  13 SE7       30.13F
COPPER MTN     NOT AVBL
BERTHOUD PASS  FAIR      36  28  75 E22G33    30.44R
COTTONWOOD PAS PTSUNNY   61   3  10 SE14G21   30.26F
GUNNISON       FAIR      68  23  18 S13       30.10F
KREMMLING      FAIR      70  19  14 SE3       30.09F
LEADVILLE      CLOUDY    57  18  21 S14       30.24F
MONARCH PASS   FAIR      46  19  34 MISG      30.51F
SALIDA         FAIR      69  16  13 S5        30.18F
SUNLIGHT       CLOUDY    55  16  21 CALM      30.32F
WILKERSON PASS FAIR      50  18  27 CALM      30.39F
$$

COZ069>075-060200-
...SAN LUIS VALLEY/SANGRE DE CRISTO MOUNTAINS...

CITY           SKY/WX    TMP DP  RH WIND       PRES   REMARKS
ALAMOSA        FAIR      69  27  20 S5        30.11F
LA VETA PASS   MOCLDY    50  25  37 NE8       30.33S
SAGUACHE       FAIR      66  23  19 S8        30.14F
$$

COZ035-036-038>040-060200-
...NORTHERN COLORADO FRONT RANGE...

CITY           SKY/WX    TMP DP  RH WIND       PRES   REMARKS
DENVER INTL AP MOCLDY    71  40  32 SE10      30.00F
DMNS CITY PARK   N/A     73  33  22 E7G13     29.99S
AURORA         FAIR      72  38  28 SE9       30.02F
FRONT RANGE AP MOCLDY    72  39  30 E9        30.02F
ERIE MUNI ARPT FAIR      74  35  23 E8        29.98F
BOULDER MUN AP FAIR      75  34  22 NE5       29.99S
CENTENNIAL     MOCLDY    72  32  23 SE15      30.03F
BROOMFIELD     PTSUNNY   73  32  21 E12       30.02F
FORT COLLINS   FAIR      73  41  31 E8        29.97S
LONGMONT       FAIR      74  38  27 E8        30.00S
$$

COZ041-046-047-076>085-087-088-060200-
...PIKES PEAK/PALMER DIVIDE AND SOUTHERN FOOTHILLS...

CITY           SKY/WX    TMP DP  RH WIND       PRES   REMARKS
COLO. SPRINGS  MOCLDY    73  27  18 SE13      30.07F
A. F. ACADEMY  FAIR      70  27  19 SE15G23   30.07F
SCHRIEVER AFB  NOT AVBL
ELLICOTT       FAIR     N/A N/A N/A SE18      30.07S
FALCON         NOT AVBL
FORT CARSON    FAIR      74  33  22 S13       30.04S
LIMON          FAIR      70  38  31 SE13      30.05S
MONUMENT HILL  FAIR      64  34  32 S12       30.13S
TRINIDAD       FAIR      76  27  16 E7        30.03S
$$

COZ042>045-048>051-090-091-060200-
...NORTHEAST COLORADO...

CITY           SKY/WX    TMP DP  RH WIND       PRES   REMARKS
GREELEY ARPT   FAIR      75  41  29 SE6       29.98S
AKRON          FAIR      72  38  29 S12       29.99F
BURLINGTON     FAIR      74  40  29 S13       30.02S
WRAY           NOT AVBL
STERLING       FAIR      73  45  35 SE7       29.94S
HOLYOKE        NOT AVBL
FORT MORGAN    FAIR      76  33  21 SE6       29.97F
$$

COZ086-089-092>099-060200-
...SOUTHEAST COLORADO...

CITY           SKY/WX    TMP DP  RH WIND       PRES   REMARKS
PUEBLO         FAIR      81  31  16 SE15      29.96F
LA JUNTA       FAIR      81  38  21 E12       29.96F
LAMAR          FAIR      79  42  26 SE14      29.95F
SPRINGFIELD      N/A     73  42  32 SE10      30.00S
$$




USA.gov is the U.S. government's official web portal to all federal, state and local government web resources and services.